{"data":{"norad_id":58061,"epoch":"2026-05-25T02:42:20.225376Z","epoch_age_seconds":68854,"freshness":"FRESH","line1":"1 58061U 23158L   26145.11273409  .00000939  00000+0  43646-4 0  9991","line2":"2 58061  43.0044 289.6503 0001640 264.9281  95.1384 15.27585515145557","mean_motion":15.27585515,"eccentricity":0.000164,"inclination_deg":43.0044,"raan_deg":289.6503,"arg_perigee_deg":264.9281,"mean_anomaly_deg":95.1384,"bstar":4.3646e-5,"rev_number":14555,"period_min":94.266408385,"perigee_km":481.90735038385,"apogee_km":484.15781400681,"semimajor_km":6861.1695821953,"source":"CELESTRAK","updated_at":"2026-05-25T13:38:18.500738Z"}}